Location: Arleux
(50.3632°N, 2.8721°E)
Time: 12:45:13
(UTC+00:00)

Meteor 2-13 Rocket - Pass Details

Date: 15 December 2019
Orbit: 937 x 957 km, 82.5° (Epoch: 18 January)

Event Time Altitude Azimuth Distance (km) Brightness Sun altitude
Exits shadow 05:24:22 - 347° (NNW) 3,296 7.0 -20.6°
Reaches altitude 10° 05:25:59 10° 346° (NNW) 2,691 6.6 -20.4°
Maximum altitude 05:32:06 70° 264° (W) 1,016 4.4 -19.4°
Drops below altitude 10° 05:38:11 10° 182° (S) 2,681 6.9 -18.5°
Sets 05:40:41 0° 180° (S) 3,623 7.7 -18.1°
